Regional Weather Roundup
Issued by NWS

Home | Current Version | Previous Version | Graphics & Text | Print | Product List | Glossary On
Versions: 1 2 3 4 5 6 7 8 9 10 11 12 13 14 15 16 17 18 19 20 21 22 23 24 25 26 27 28 29 30 31 32 33 34 35 36 37 38 39 40 41 42 43 44 45 46 47 48 49 50
000
ASUS43 KOAX 240402
RWRNE

WEATHER ROUNDUP FOR NEBRASKA
NATIONAL WEATHER SERVICE OMAHA NE
1100 PM CDT WED JUL 23 2014

NOTES: SATELLITE DATA IS BEING USED TO AUGMENT CLOUD COVER ABOVE
       12000 FEET.
       "FAIR" INDICATES FEW OR NO CLOUDS BELOW 12,000 FEET WITH NO
       SIGNIFICANT WEATHER AND/OR OBSTRUCTIONS TO VISIBILITY.

  * THESE STATIONS DO NOT REPORT WEATHER SUCH AS RAIN...SNOW OR FOG.

NEZ001>004-019>022-054>056-240500-
NEBRASKA PANHANDLE

CITY           SKY/WX    TMP DP  RH WIND       PRES   REMARKS
SCOTTSBLUFF    MOCLDY    77  67  71 SE14      30.10R
ALLIANCE       PTCLDY    76  64  66 SE21      30.11F
CHADRON        CLEAR     80  65  59 SE26G35   30.02S
KIMBALL        CLEAR     70  53  54 CALM      30.19R
SIDNEY         CLEAR     80  62  54 S12       30.18R
$$

NEZ057>060-069>072-079>082-240500-
SOUTHWEST NEBRASKA

CITY           SKY/WX    TMP DP  RH WIND       PRES   REMARKS
NORTH PLATTE   PTCLDY    69  62  78 SE10      30.16S
IMPERIAL       CLEAR     70  64  81 SE14      30.17R
LEXINGTON      CLEAR     70  63  78 SE7       30.17F
MCCOOK         CLEAR     70  64  81 SE10      30.17R
OGALLALA       CLEAR     69  64  83 E8        30.16F
$$

NEZ005>010-023>029-035>040-094-240500-
NORTH CENTRAL NEBRASKA

CITY           SKY/WX    TMP DP  RH WIND       PRES   REMARKS
VALENTINE      CLEAR     74  57  55 SE12      30.12F
AINSWORTH      CLEAR     68  58  68 SE9       30.15F
BROKEN BOW     PTCLDY    67  62  84 SE6       30.17F
O`NEILL        CLEAR     69  59  70 SE7       30.18S
ORD            CLEAR     68  62  81 SE5       30.16F
$$

NEZ041-046>049-061>064-073>077-083>087-240500-
SOUTH CENTRAL NEBRASKA

CITY           SKY/WX    TMP DP  RH WIND       PRES   REMARKS
GRAND ISLAND   CLEAR     69  62  78 E6        30.18S
AURORA         CLEAR     68  64  89 E5        30.18S
HASTINGS       CLEAR     73  57  57 E7        30.17F
HEBRON         CLEAR     66  60  81 CALM      30.17S
HOLDREGE       CLEAR     68  62  81 E10       30.17S
KEARNEY *      CLEAR     66  61  82 E8        30.18S
YORK           MOCLDY    68  64  88 E6        30.18S
$$

NEZ011>018-030>034-042>045-240500-
NORTHEAST NEBRASKA

CITY           SKY/WX    TMP DP  RH WIND       PRES   REMARKS
NORFOLK        CLEAR     68  59  73 SE5       30.18S
ALBION         CLEAR     65  59  79 CALM      30.18S
BLAIR          CLEAR     71  61  70 E3        30.17S
COLUMBUS *     CLEAR     66  59  77 E6        30.17F
FREMONT        CLEAR     73  61  67 E5        30.17S
TEKAMAH        CLEAR     67  61  81 CALM      30.16S
WAYNE          CLEAR     67  61  83 E6        30.18S
$$

NEZ050>053-065>068-078-088>093-240500-
SOUTHEAST NEBRASKA

CITY           SKY/WX    TMP DP  RH WIND       PRES   REMARKS
LINCOLN        CLEAR     72  61  68 E6        30.18R
OMAHA EPPLEY   CLEAR     74  62  66 E7        30.17R
BEATRICE       CLEAR     70  62  76 CALM      30.16S
FALLS CITY     CLEAR     71  65  81 E3        30.14R
NEBRASKA CITY  CLEAR     70  63  77 E3        30.16S
PLATTSMOUTH    CLEAR     72  61  70 E5        30.17R
$$

NEZ044-045-051>053-067-240500-
OMAHA AREA

CITY           SKY/WX    TMP DP  RH WIND       PRES   REMARKS
OMAHA EPPLEY   CLEAR     74  62  66 E7        30.17R
BLAIR          CLEAR     71  61  70 E3        30.17S
FREMONT        CLEAR     73  61  67 E5        30.17S
MILLARD        CLEAR     73  63  72 CALM      30.16S
OFFUTT AFB     CLEAR     69  65  86 CALM      30.16R
PLATTSMOUTH    CLEAR     72  61  70 E5        30.17R
WAHOO          FAIR      69  62  77 CALM      30.17R
$$


USA.gov is the U.S. government's official web portal to all federal, state and local government web resources and services.